Stewartville, MN

5:00 AM CDT on August 28, 2016 (GMT -0500)
Rochester International

Weather History for KRST - January, 2013

Change the Weather History Date:

Tuesday, January 1, 2013

  Actual Average Record
Temperature  
Mean Temperature 3 °F 16 °F  
Max Temperature 16 °F 24 °F 44 °F (1894)
Min Temperature -10 °F 9 °F -29 °F (1974)
Degree Days  
Heating Degree Days 62 49  
Month to date heating degree days 62 49  
Since 1 July heating degree days 2780 3127  
Cooling Degree Days 0 0  
Month to date cooling degree days 0 0  
Year to date cooling degree days 0 0  
Moisture  
Dew Point 0 °F    
Average Humidity 75    
Maximum Humidity 87    
Minimum Humidity 63    
Precipitation  
Precipitation T in 0.03 in 0.67 in (1941)
Month to date precipitation T 0.03  
Year to date precipitation T 0.03  
Snow  
Snow T in 0.30 in 5.00 in (1919)
Month to date snowfall T 0.3  
Since 1 July snowfall 14.5 19.7  
Snow Depth 5.00 in    
Sea Level Pressure  
Sea Level Pressure 30.22 in    
Wind  
Wind Speed 8 mph (WSW)    
Max Wind Speed 14 mph    
Max Gust Speed -    
Visibility 10 miles    
Events Snow    
T = Trace of Precipitation, MM = Missing Value Source: NWS Daily Summary

Daily Weather History Graph

Daily Weather History Graph

Search for Another Location

Airport or City:

Trip Planner

Search our weather history database for the weather conditions in past years. The results will help you decide how hot, cold, wet, or windy it might be!

Date:

Astronomy

Jan. 01, 2013 Rise Set
Actual Time 7:44 AM CST 4:43 PM CST
Civil Twilight 7:11 AM CST 5:16 PM CST
Nautical Twilight 6:35 AM CST 5:52 PM CST
Astronomical Twilight 6:00 AM CST 6:27 PM CST
Moon 9:24 PM CST (1/1) 9:47 AM CST (1/1)
Length of Visible Light 10h 04m
Length of Day
8h 58m
Waning Gibbous, 83% of the Moon is Illuminated
Jan 1
Waning Gibbous
Jan 4
Last Quarter
Jan 11
New
Jan 18
First Quarter
Jan 26
Full

Hourly Weather History & Observations

Time (CST) Temp. Windchill Dew Point Humidity Pressure Visibility Wind Dir Wind Speed Gust Speed Precip Events Conditions
12:54 AM -2.9 °F -16.5 °F -8.0 °F 79% 30.30 in 10.0 mi NW 6.9 mph - N/A   Clear
1:54 AM -5.1 °F -20.4 °F -9.9 °F 80% 30.31 in 9.0 mi NW 8.1 mph - N/A   Clear
2:54 AM -5.8 °F -22.4 °F -9.4 °F 84% 30.21 in 10.0 mi WNW 9.2 mph - N/A   Clear
3:54 AM -6.0 °F -23.6 °F -11.0 °F 79% 30.32 in 10.0 mi WNW 10.4 mph - N/A   Clear
4:54 AM -7.1 °F -22.8 °F -11.9 °F 79% 30.33 in 10.0 mi WNW 8.1 mph - N/A   Clear
5:54 AM -8.0 °F -26.1 °F -13.0 °F 79% 30.33 in 9.0 mi West 10.4 mph - N/A   Clear
6:54 AM -6.0 °F -21.5 °F -11.9 °F 75% 30.34 in 10.0 mi NW 8.1 mph - N/A   Clear
7:54 AM -9.4 °F -24.3 °F -14.8 °F 77% 30.22 in 9.0 mi WNW 6.9 mph - N/A   Clear
8:54 AM -8.0 °F -16.9 °F -13.0 °F 79% 30.35 in 9.0 mi West 3.5 mph - N/A   Clear
9:54 AM -4.0 °F -12.4 °F -7.1 °F 87% 30.33 in 9.0 mi South 3.5 mph - N/A   Clear
10:54 AM -0.0 °F -11.6 °F -6.0 °F 76% 30.32 in 10.0 mi SSW 5.8 mph - N/A   Clear
11:54 AM 5.0 °F -5.6 °F -2.9 °F 70% 30.30 in 10.0 mi SSW 5.8 mph - N/A   Clear
12:54 PM 8.1 °F -5.3 °F -2.0 °F 64% 30.28 in 10.0 mi SW 9.2 mph - N/A   Mostly Cloudy
1:16 PM 8.6 °F -2.6 °F -0.4 °F 67% 30.17 in 10.0 mi SW 6.9 mph - N/A   Overcast
1:54 PM 10.9 °F -3.4 °F -0.0 °F 61% 30.26 in 10.0 mi WSW 11.5 mph - N/A   Overcast
2:35 PM 10.4 °F -4.1 °F -0.4 °F 62% 30.15 in 9.0 mi WSW 11.5 mph - N/A   Overcast
2:54 PM 10.4 °F -2.4 °F 1.4 °F 67% 30.16 in 9.0 mi SW 9.2 mph - N/A   Overcast
3:34 PM 10.4 °F -4.1 °F 1.4 °F 67% 30.14 in 6.0 mi SW 11.5 mph - 0.00 in Snow Light Snow
3:54 PM 10.4 °F -3.3 °F 3.2 °F 73% 30.14 in 8.0 mi SW 10.4 mph - N/A   Overcast
4:54 PM 12.9 °F 1.6 °F 5.0 °F 71% 30.24 in 10.0 mi WSW 8.1 mph - N/A   Overcast
5:54 PM 12.9 °F 0.7 °F 7.0 °F 77% 30.24 in 10.0 mi SW 9.2 mph - N/A   Overcast
6:19 PM 12.2 °F -0.2 °F 6.8 °F 79% 30.12 in 10.0 mi SW 9.2 mph - N/A   Overcast
6:54 PM 14.0 °F - 7.0 °F 74% 30.21 in 10.0 mi Calm Calm - N/A   Overcast
7:25 PM 14.0 °F - 8.6 °F 79% 30.11 in 10.0 mi North - - N/A   Overcast
7:54 PM 15.1 °F 5.2 °F 9.0 °F 77% 30.21 in 10.0 mi Variable 6.9 mph - N/A   Overcast
8:54 PM 16.0 °F 5.3 °F 10.0 °F 77% 30.19 in 10.0 mi SW 8.1 mph - N/A   Overcast
9:32 PM 15.8 °F 4.2 °F 10.4 °F 79% 30.08 in 10.0 mi SSW 9.2 mph - N/A   Overcast
9:40 PM 15.8 °F 5.1 °F 10.4 °F 79% 30.08 in 10.0 mi SSW 8.1 mph - N/A   Overcast
9:54 PM 16.0 °F 4.4 °F 10.0 °F 77% 30.18 in 10.0 mi SSW 9.2 mph - N/A   Overcast
10:18 PM 15.8 °F 2.1 °F 10.4 °F 79% 30.07 in 10.0 mi SW 12.7 mph - N/A   Overcast
10:35 PM 12.2 °F -1.0 °F 8.6 °F 85% 30.07 in 10.0 mi SW 10.4 mph - N/A   Scattered Clouds
10:54 PM 10.0 °F -1.9 °F 6.1 °F 84% 30.17 in 10.0 mi SSW 8.1 mph - N/A   Clear
11:54 PM 8.1 °F -5.3 °F 3.9 °F 83% 30.14 in 10.0 mi South 9.2 mph - N/A   Clear